Regional Weather Roundup
Issued by NWS

Home | Current Version | Previous Version | Text Only | Print | Product List | Glossary Off
Versions: 1 2 3 4 5 6 7 8 9 10 11 12 13 14 15 16 17 18 19 20 21 22 23 24 25 26 27 28 29 30 31 32 33 34 35 36 37 38 39 40 41 42 43 44 45 46 47 48 49 50

000
ASUS43 KMKX 271410
RWRWI

WISCONSIN REGIONAL WEATHER ROUNDUP
NATIONAL WEATHER SERVICE MILWAUKEE/SULLIVAN WI
800 AM CST FRI FEB 27 2015

NOTE: "FAIR" INDICATES FEW OR NO CLOUDS BELOW 12,000 FEET WITH NO
SIGNIFICANT WEATHER AND/OR OBSTRUCTIONS TO VISIBILITY.

WIZ001-002-006>008-014>016-023>028-271500-
NORTHWEST WISCONSIN

CITY           SKY/WX    TMP DP  RH WIND       PRES   REMARKS
SUPERIOR ARPT  MOSUNNY   -7 -13  76 SW8       30.50R WCI -23
ASHLAND        SUNNY     -6 -13  71 W8        30.46R WCI -21
HAYWARD        MOSUNNY  -14 -21  71 S5        30.45R WCI -26
SIREN          MOSUNNY   -6 -12  76 W5        30.50R WCI -17
CUMBERLAND     MOSUNNY  -15 -22  70 CALM      30.47R
RICE LAKE      MOSUNNY  -12 -17  77 CALM      30.50R
CHETEK         MOSUNNY   -9 -13  80 CALM      30.49S
LADYSMITH      SUNNY    -14 -20  74 CALM      30.47R
EAU CLAIRE     SUNNY     -7 -13  75 SW7       30.52R WCI -21
MENOMONIE      MOSUNNY   -5 -11  73 CALM      30.53R
NEW RICHMOND   SUNNY     -6 -11  79 SW3       30.51S
OSCEOLA        SUNNY    -10 -15  78 CALM      30.56R
$$

WIZ003>005-009-010-017-018-271500-
NORTH CENTRAL WISCONSIN

CITY           SKY/WX    TMP DP  RH WIND       PRES   REMARKS
MANITOWISH WTR MOSUNNY  -21 -27  72 SW3       30.36R
ARBOR VITAE    MOSUNNY   -9 -15  74 W3        30.36R
WOODRUFF       MOSUNNY   -9 -15  74 W3        30.36R
RHINELANDER    MOSUNNY  -11 -18  71 W7        30.37R WCI -26
EAGLE RIVER    MOSUNNY  -14 -20  72 CALM      30.35R
LAND O LAKES   MOSUNNY  -18 -24  73 W3        30.35R
PHILLIPS       MOSUNNY  -16 -22  72 CALM      30.40R
TOMAHAWK       MOSUNNY  -10 -15  79 CALM      30.41R
MEDFORD        SUNNY     -9 -14  76 W5        30.42R WCI -20
MERRILL        SUNNY    -14 -21  71 CALM      30.43R
$$

WIZ029-030-035-036-043>047-271500-
CENTRAL WISCONSIN

CITY           SKY/WX    TMP DP  RH WIND       PRES   REMARKS
WAUSAU         SUNNY     -5 -13  68 NW7       30.44R WCI -19
MOSINEE        SUNNY     -8 -15  71 W6        30.45R WCI -21
MARSHFIELD     SUNNY     -6 -13  71 W7        30.46R WCI -20
STEVENS POINT  SUNNY    -12 -18  75 CALM      30.48R
WAUPACA        SUNNY      1 -10  58 W6        30.51R WCI -10
WAUTOMA        SUNNY     -2 -12  62 NW7       30.53R WCI -15
WISC RAPIDS    SUNNY     -7 -13  75 CALM      30.51R
CAMP DOUGLAS   SUNNY      0  -8  71 W5        30.53R WCI -10
$$

WIZ011>013-019>022-031-037>040-048>050-271500-
NORTHEAST WISCONSIN

CITY           SKY/WX    TMP DP  RH WIND       PRES   REMARKS
ANTIGO         SUNNY     -9 -15  74 CALM      30.39S
SHAWANO        SUNNY      0 -11  60 W7        30.49R WCI -13
OCONTO         SUNNY     -2  -9  72 W6        30.50R WCI -14
STURGEON BAY   SUNNY      0  -9  65 W7        30.49R WCI -13
GREEN BAY      SUNNY      1  -8  66 W7        30.51R WCI -12
MANITOWOC      SUNNY      3  -6  66 W8        30.52R WCI -10
APPLETON       SUNNY     -2 -11  65 W9        30.49R WCI -18
CLINTONVILLE   SUNNY      0 -11  60 W5        30.49R WCI -10
OSHKOSH        SUNNY      0 -10  63 W6        30.51R WCI -12
$$

WIZ032>034-041-042-053>061-271500-
SOUTHWEST WISCONSIN

CITY           SKY/WX    TMP DP  RH WIND       PRES   REMARKS
LA CROSSE      SUNNY     -6 -11  79 S6        30.58R WCI -19
SPARTA         SUNNY    -14 -20  74 CALM      30.55R
VIROQUA        SUNNY     -8 -12  81 W5        30.50R WCI -19
BOSCOBEL       SUNNY    -10 -15  78 SW6       30.60R WCI -23
PRAIRIE DU CHI MOSUNNY  -13 -20  72 CALM      30.61R
PLATTEVILLE    MOSUNNY  -13 -18  77 SW6       30.55R WCI -27
$$

WIZ056-057-062-063-064-067-068-271500-
SOUTH CENTRAL WISCONSIN

CITY           SKY/WX    TMP DP  RH WIND       PRES   REMARKS
REEDSBURG      SUNNY     -7 -13  78 CALM      30.53R
BARABOO/DELLS  SUNNY     -5 -11  76 CALM      30.52R
LONE ROCK      SUNNY    -10 -16  74 W5        30.58R WCI -22
MINERAL POINT  SUNNY     -6 -11  77 CALM      30.51R
MADISON        SUNNY      0  -9  65 CALM      30.53R
MIDDLETON      SUNNY      0 -10  63 W3        30.54R
WATERTOWN      SUNNY     -1  -8  74 CALM      30.53R
MONROE         MOSUNNY    0  -8  71 NW9       30.52R WCI -16
JANESVILLE     SUNNY     -6 -11  77 CALM      30.54R
$$

WIZ051-052-058>065-066-070>072-271500-
SOUTHEAST WISCONSIN

CITY           SKY/WX    TMP DP  RH WIND       PRES   REMARKS
MILWAUKEE      SUNNY      3  -8  60 NW6       30.53R WCI  -8
WAUKESHA       SUNNY     -2  -9  71 W8        30.52R WCI -17
MILWAUKEE/TIMM SUNNY      0  -9  65 W5        30.53R WCI -10
RACINE         SUNNY      0 -10  63 W10       30.54R WCI -16
BURLINGTON       N/A    N/A N/A N/A MISG        N/A
KENOSHA        SUNNY     -1 -10  65 W9        30.53R WCI -16
FOND DU LAC    SUNNY     -1 -10  65 CALM      30.52R
SHEBOYGAN      SUNNY      1  -9  62 W6        30.51R WCI -10
WEST BEND      SUNNY      1  -8  66 W5        30.50R WCI  -8
JUNEAU         SUNNY     -2  -9  72 W3        30.53R
$$

LSZ147-162-271500-
LAKE SUPERIOR

STATION/POSITION TIME  TEMP    WIND        PRES    WAVE
                       AIR SEA DIR/SP/G            HT/PER
                 (UTC) (F)     (DEG/KT/KT) (MB)    (FT/S)
DEVILS ISLAND    1400    2     250/ 13/ 15 1033.0R
PORT WING        1300   -6     200/  7/  9 1031.8R
SAXON HARBOR     1300   -4     200/  6/ 10 1031.5
$$

LMZ867-665-643>646-271500-
LAKE MICHIGAN

STATION/POSITION TIME  TEMP    WIND        PRES    WAVE
                       AIR SEA DIR/SP/G            HT/PER
                 (UTC) (F)     (DEG/KT/KT) (MB)    (FT/S)
NORTHPORT PIER   1328    2     270/  5/  9 1031.5R
KEWAUNEE LAKESHO 1300   -1     290/  4/  7 1031.0R
SHEBOYGAN LAKESH 1400    4     270/  8/ 10 1035.5R
PORT WASHINGTON  1340    4     290/  8/ 12 1034.2R
MILWAUKEE LAKESH 1300    3     300/  9/ 11   N/A
KENOSHA   LAKESH 1400    2     280/  8/ 13 1033.9R
$$

TC  - TEMPERATURE IN CELSIUS
VSB - VISIBILITY IN STATUTE MILES
WCI - WIND CHILL INDEX
HX  - HEAT INDEX



USA.gov is the U.S. government's official web portal to all federal, state and local government web resources and services.